Regional Weather Roundup
Issued by NWS Albany, NY

Home | Current Version | Previous Version | Text Only | Print | Product List | Glossary On
Versions: 1 2 3 4 5 6 7 8 9 10 11 12 13 14 15 16 17 18 19 20 21 22 23 24 25 26 27
000
ASUS41 KALY 240210
RWRALY

NEW YORK STATE HOURLY WEATHER ROUNDUP
NATIONAL WEATHER SERVICE ALBANY NY
1000 PM EDT THU MAR 23 2017

NOTE: "FAIR" INDICATES FEW OR NO CLOUDS BELOW 12,000 FEET WITH NO
SIGNIFICANT WEATHER AND/OR NO OBSTRUCTIONS TO VISIBILITY.

NYZ032-033-038>043-046>054-057>066-NYZ062>081-082-084-240300-
EAST


CITY           SKY/WX    TMP DP  RH WIND       PRES   REMARKS
ALBANY         PTCLDY    28   7  41 CALM      30.53R
GLENS FALLS    CLEAR     24  12  60 CALM      30.49F
POUGHKEEPSIE   CLEAR     25  14  63 CALM      30.54S
NEWBURGH       CLEAR     32  12  43 W5        30.54R WCI  27
MONTGOMERY     CLEAR     26  13  57 CALM      30.52F
WHITE PLAINS   CLEAR     29  10  45 CALM      30.54R
ISLIP          CLEAR     31  22  69 SW6       30.56R WCI  25
NEW YORK CITY  CLEAR     40  21  46 S8        30.56R WCI  34
CENTRAL PARK   CLEAR     40  -1  18 CALM      30.58R
$$

NYZ005>009-017-018-044>046-055-056-240300-
CENTRAL


CITY           SKY/WX    TMP DP  RH WIND       PRES   REMARKS
FULTON         CLEAR     26  12  55 CALM      30.45F
SYRACUSE       PTCLDY    27  10  49 E5        30.46F WCI  22
ROME           CLOUDY    25  15  66 SE5       30.50F WCI  19
ELMIRA         CLOUDY    35   8  32 CALM      30.43F
BINGHAMTON     CLOUDY    27   5  39 S6        30.41F WCI  20
MONTICELLO     CLEAR     27   1  33 CALM      30.49S
$$

NYZ026>034-041>043-087-240300-
NORTH


CITY           SKY/WX    TMP DP  RH WIND       PRES   REMARKS
WATERTOWN      CLEAR     25  13  60 SE5       30.47F WCI  19
FORT DRUM      NOT AVBL
MASSENA        CLOUDY    29  15  56 SW9       30.48S WCI  20
SARANAC LAKE   CLEAR     19   6  57 CALM      30.39F
PLATTSBURGH    PTCLDY    28  12  51 S5        30.47F WCI  23
$$

NYZ001>004-010>016-019>021-085-240300-
WEST


CITY           SKY/WX    TMP DP  RH WIND       PRES   REMARKS
NIAGARA FALLS  CLOUDY    34  21  59 E8        30.37F WCI  27
BUFFALO        MOCLDY    35  16  45 E8        30.36F WCI  29
DUNKIRK        CLOUDY    32  21  64 E3        30.34F
JAMESTOWN      CLEAR     37   1  22 S7        30.31F WCI  32
WELLSVILLE     CLEAR     36   0  21 S7        30.35F WCI  30
ROCHESTER      CLOUDY    33  14  45 E8        30.43S WCI  26
PENN YAN       CLEAR     28  13  53 CALM      30.42S
$$

             KEY
       WCI = WIND CHILL INDEX
       VSB = VISIBILITY
       HX  = HEAT INDEX
$$




USA.gov is the U.S. government's official web portal to all federal, state and local government web resources and services.